Flag for Switzerland Weather past 2 weeks in Solothurn, Solothurn, Switzerland

Now
61 °F

Low clouds.


Feels Like: 61 °F
Forecast: 54 / 87 °F
Wind: 2 mph from Northwest

Location: Grenchen

Current Time: Aug 2, 2015 at 3:30:01 AM

Latest Report: Aug 2, 2015 at 2:50 AM


Visibility: 4 mi

Pressure: 30.09 "Hg

Humidity: 94%

Dew point: 59 °F

Location of SolothurnLocation

Historic Weather in Solothurn — Graph

°F

Solothurn temperature yesterday

Maximum temperature yesterday: 66 °F (at 2:20 PM)
Minimum temperature yesterday: 57 °F (at 1:50 AM)
Average temperature yesterday: 62 °F

Past Weeks' High & Low Weather Summary

 TemperatureHumidityPressure
High93 °F (Jul 21, 3:50 PM)100% (Jul 19, 12:50 AM)30.21 "Hg (Jul 19, 12:50 AM)
Low50 °F (Jul 26, 5:50 AM)31% (Jul 30, 5:20 PM)29.71 "Hg (Jul 24, 7:20 PM)
Average69 °F66%29.98 "Hg
* Reported Jul 18 1:20 AM — Aug 2 1:50 AM, Solothurn, Weather by CustomWeather, © 2015

Note: Actual official high and low records may vary slightly from our data, if they occured in-between our weather recording intervals... More about our weather records

Advertising

Solothurn weather history for previous 24 hours

 ConditionsComfort  
Time TempWeatherWind HumidityBarometerVisibility
1:50 AM
Sun, Aug 2
61 °FFog.1 mph94%30.09 "Hg2 mi
1:20 AM61 °FLow clouds.2 mph94%30.09 "Hg3 mi
12:50 AM61 °FPartly cloudy.1 mph100%30.09 "Hg3 mi
11:20 PM
Sat, Aug 1
61 °FMostly cloudy.2 mph100%30.09 "Hg3 mi
10:20 PM61 °FLight rain. Partly sunny.No wind100%30.09 "Hg5 mi
9:50 PM61 °FLight rain. More clouds than sun.2 mph94%30.07 "HgN/A
9:20 PM61 °FLight rain. Broken clouds.1 mph94%30.07 "Hg4 mi
8:50 PM63 °FRain. Partly sunny.6 mph94%30.04 "Hg4 mi
8:20 PM64 °FOvercast.3 mph83%30.04 "HgN/A
7:50 PM66 °FOvercast.2 mph78%30.04 "HgN/A
7:20 PM66 °FBroken clouds.2 mph78%30.04 "HgN/A
6:50 PM66 °FBroken clouds.2 mph73%30.04 "HgN/A
6:20 PM66 °FBroken clouds.3 mph73%30.04 "HgN/A
5:50 PM66 °FPartly sunny.3 mph73%30.04 "HgN/A
5:20 PM66 °FPartly sunny.2 mph73%30.01 "HgN/A
4:50 PM66 °FPartly sunny.2 mph73%30.01 "HgN/A
4:20 PM66 °FScattered clouds.1 mph68%30.01 "HgN/A
3:50 PM66 °FPartly sunny.1 mph73%30.01 "HgN/A
3:20 PM66 °FPartly sunny.1 mph68%30.01 "HgN/A
2:50 PM64 °FClear.2 mph73%30.01 "HgN/A
2:20 PM66 °FPartly sunny.1 mph68%30.01 "HgN/A
1:50 PM64 °FOvercast.2 mph73%30.01 "HgN/A
1:20 PM64 °FOvercast.2 mph73%30.01 "HgN/A
12:50 PM64 °FBroken clouds.3 mph83%30.01 "HgN/A
12:20 PM64 °FBroken clouds.3 mph78%30.01 "HgN/A
11:50 AM63 °FBroken clouds.3 mph83%30.01 "HgN/A
11:20 AM61 °FLight rain. Broken clouds.1 mph88%30.04 "HgN/A
10:50 AM61 °FLight rain. More clouds than sun.1 mph88%30.04 "Hg5 mi
10:20 AM61 °FLight rain. More clouds than sun.1 mph94%30.04 "Hg4 mi
9:50 AM59 °FLight rain. Broken clouds.1 mph94%30.01 "Hg4 mi
9:20 AM59 °FLight rain. Broken clouds.1 mph94%30.01 "Hg3 mi
8:50 AM59 °FRain. Fog.1 mph94%30.01 "Hg3 mi
8:20 AM59 °FLight rain. More clouds than sun.No wind94%30.01 "Hg4 mi
7:50 AM59 °FRain. Fog.1 mph94%30.01 "Hg3 mi
7:20 AM59 °FRain. Passing clouds.3 mph94%30.01 "Hg4 mi
6:50 AM57 °FRain. Passing clouds.5 mph94%30.01 "HgN/A
6:20 AM57 °FLight rain. Passing clouds.5 mph94%29.98 "HgN/A
5:50 AM57 °FSprinkles. Passing clouds.5 mph94%29.98 "HgN/A
5:20 AM59 °FSprinkles. Passing clouds.5 mph88%29.95 "HgN/A
4:50 AM59 °FClear.1 mph82%29.92 "Hg10 mi
4:20 AM59 °FClear.2 mph82%29.92 "Hg10 mi
3:50 AM59 °FLight rain. Passing clouds.5 mph82%29.92 "HgN/A
3:20 AM59 °FClear.2 mph82%29.92 "Hg10 mi
Weather by CustomWeather, © 2015

See weather overviewHow to use our weather pages